{"data":{"norad_id":66846,"intl_designator":"2025-280AB","name":"STARLINK-36055","alt_names":[],"object_type":"PAYLOAD","status":"ACTIVE","operator":null,"country":"US","launch_date":"2025-12-02","launch_site_code":"AFWTR","launch_vehicle":null,"mission":null,"orbit_class":"UNKNOWN","rcs_meters":null,"size_class":null,"mass_kg":null,"dimensions":null,"purposes":["comms"],"wikipedia_slug":null,"has_3d_model":false,"image_url":null,"decayed_at":null,"tle_current":{"epoch":"2026-05-25T03:12:48.711168Z","epoch_age_seconds":53665,"freshness":"FRESH","line1":"1 66846U 25280AB  26145.13389712  .00003588  00000+0  30827-3 0  9995","line2":"2 66846  70.0008 141.8295 0003774 267.0808  92.9920 14.98338000 27533","mean_motion":14.98338,"eccentricity":0.0003774,"inclination_deg":70.0008,"raan_deg":141.8295,"arg_perigee_deg":267.0808,"mean_anomaly_deg":92.992,"bstar":0.00030827,"rev_number":2753,"period_min":96.106485986473,"perigee_km":569.40815825396,"apogee_km":574.65414517487,"semimajor_km":6950.1681517144,"source":"CELESTRAK","updated_at":"2026-05-25T13:38:21.339330Z"}}}